Regional Weather Roundup
Issued by NWS

Home | Current Version | Previous Version | Graphics & Text | Print | Product List | Glossary On
Versions: 1 2 3 4 5 6 7 8 9 10 11 12 13 14 15 16 17 18 19 20 21 22 23 24 25 26 27
000
ASUS45 KTFX 270810
RWRMT
MONTANA REGIONAL WEATHER ROUNDUP
NATIONAL WEATHER SERVICE GREAT FALLS MT
200 AM MDT TUE JUN 27 2017

NOTE: "FAIR" INDICATES FEW OR NO CLOUDS BELOW 12000 FEET WITH NO
SIGNIFICANT WEATHER AND/OR OBSTRUCTIONS TO VISIBILITY.

MTZ001>007-043-270900-
WEST OF THE DIVIDE

CITY           SKY/WX    TMP DP  RH WIND       PRES   REMARKS
KALISPELL      CLOUDY    60  58  92 SW9       29.79F
MISSOULA       CLOUDY    67  53  61 S22G32    29.86F
BUTTE          CLOUDY    58  50  75 NE10      29.99F
MULLAN PASS    CLOUDY    57  41  55 CALM      29.97F
ANACONDA         N/A     59  52  77 CALM      29.96F
DEER LODGE       N/A     61  54  77 CALM      29.95F
EUREKA           N/A     64  54  68 CALM      29.75F
HAMILTON         N/A     61  54  77 S6        29.90F
$$

MTZ008-052>055-270900-
SOUTHWEST MONTANA

CITY           SKY/WX    TMP DP  RH WIND       PRES   REMARKS
BOZEMAN        CLOUDY    62  54  74 NW6       29.96S
DILLON         MOCLDY    63  47  55 S9        29.98F
W YELLOWSTONE  CLOUDY    55  41  58 CALM      30.07R
ENNIS          CLOUDY    55  50  82 SE3       30.06R
THREE FORKS      N/A     65  52  62 W14       29.96S
$$

MTZ009-010-012-014-046-048-049-054-270900-
EAST SLOPES AND CENTRAL MONTANA

CITY           SKY/WX    TMP DP  RH WIND       PRES   REMARKS
CUT BANK       CLOUDY    66  45  46 W12       29.73F
GREAT FALLS    CLOUDY    74  44  34 SW15G21   29.78S
MALMSTROM AFB  CLOUDY    70  55  58 SW10G24   29.79R
HELENA         CLOUDY    70  51  51 SW22G28   29.91R
CHOTEAU          N/A     73  45  35 SW12      29.77F
$$

MTZ011-013-016-021-045-047-050-051-270900-
NORTH CENTRAL MONTANA

CITY           SKY/WX    TMP DP  RH WIND       PRES   REMARKS
HAVRE          PTCLDY    59  53  80 W7        29.67S
LEWISTOWN      PTCLDY    60  47  61 CALM      29.81S
N BAR RANCH      N/A     73  39  29 W13G20    29.80F
CHINOOK          N/A     61  52  72 CALM      29.65F
FORT BENTON      N/A    N/A N/A N/A MISG      29.72F
$$

MTZ017>020-022>027-061-062-270900-
NORTHEAST MONTANA

CITY           SKY/WX    TMP DP  RH WIND       PRES   REMARKS
GLASGOW        MOCLDY    69  38  32 SE13      29.66F
JORDAN           N/A     70  41  34 SE9       29.66F
SIDNEY         MOCLDY    68  42  38 S14       29.76F
WOLF POINT     CLOUDY    75  39  27 E10       29.70F
MALTA          CLEAR     66  46  48 W5        29.65S
PLENTYWOOD       N/A     64  43  45 SE12      29.73F
POPLAR           N/A     72  41  33 SE8       29.73F
$$

MTZ028>42-056>058-270900-
SOUTHCENTRAL AND SOUTHEAST MONTANA

CITY           SKY/WX    TMP DP  RH WIND       PRES   REMARKS
BAKER          PTCLDY    62  38  40 SE23G31   29.81F
BILLINGS       CLOUDY    74  41  30 W20       29.76R
LIVINGSTON     CLOUDY    68  46  45 S12       29.90F
MILES CITY     CLOUDY    71  38  29 NW22G41   29.79R
BIG TIMBER     CLEAR     72  45  37 W23G35    29.90R
ROUNDUP          N/A     70  39  32 S7        29.69F
$$

REGIONAL REPORTS...DAKOTAS

CITY           SKY/WX    TMP DP  RH WIND       PRES   REMARKS
WILLISTON      MOCLDY    69  43  38 S10G21    29.78F
MINOT          PTCLDY    64  39  39 S17G24    29.84F
DICKINSON      PTCLDY    60  35  39 S28G36    29.83F
BEACH            N/A     61  39  44 SE23G29   29.83F
CROSBY           N/A     63  43  48 S16G23    29.76F
TIOGA            N/A     61  41  48 S14       29.83F
WATFORD CITY     N/A     66  41  39 SE16G24   29.79F
BISMARCK       PTCLDY    60  40  47 S14       29.94F
GRAND FORKS    CLEAR     50  43  77 S8        29.97F
FARGO          CLEAR     53  40  61 S9        30.01F
BUFFALO SD       N/A     60  39  45 SE16      29.79F
RAPID CITY     MOCLDY    56  41  57 SE9       29.94F
$$

REGIONAL REPORTS...WYOMING/IDAHO/WASHINGTON

CITY           SKY/WX    TMP DP  RH WIND       PRES   REMARKS
GILLETTE       PTCLDY    66  42  41 SE17G25   29.86F
SHERIDAN       CLOUDY    58  45  62 CALM      29.78F
BUFFALO WY     PTCLDY    64  38  38 SE10      29.87F
CODY           CLOUDY    73  36  25 SW12      29.89F
YELLOWSTONE LA   N/A     54  42  64 CALM      30.15F
IDAHO FALLS    CLOUDY    66  52  60 VRB5      29.96R
SALMON         CLOUDY    57  52  82 CALM      29.95F
BOISE          PTCLDY    68  49  50 N16G25    29.91R
SPOKANE        MOCLDY    64  58  80 S15       29.80F
$$

REGIONAL REPORTS...ALBERTA

CITY           SKY/WX    TMP DP  RH WIND       PRES   REMARKS
EDMONTON       PTCLDY    55  54  94 W10G18    29.61R
CALGARY        PTCLDY    70  39  32 W5        29.62F
LETHBRIDGE     PTCLDY    68  46  45 W16       29.63F
MEDICINE HAT   CLEAR     64  52  63 SW9       29.58F
WATERTON GATE    N/A     66  43  42 SW18G26     N/A
CARDSTON         N/A     68  43  40 SW7         N/A
MILK RIVER       N/A     64  50  59 W10G17      N/A
ONEFOUR          N/A     64  46  52 S3          N/A
$$

REGIONAL REPORTS...SASKATCHEWAN

CITY           SKY/WX    TMP DP  RH WIND       PRES   REMARKS
SWIFT CURRENT  MOCLDY    63  48  59 S13G20    29.61S
REGINA         CLEAR     59  45  58 SE18G25   29.66F
SASKATOON      PTCLDY    68  43  40 SE15G22   29.52F
CYPRESS HILLS    N/A     63  43  48 SW5         N/A
VAL MARIE        N/A     66  43  42 SW10        N/A
ROCKGLEN         N/A     63  37  39 S12         N/A
$$




USA.gov is the U.S. government's official web portal to all federal, state and local government web resources and services.